Location: ???????
(55.3754°N, 39.3545°E)
Time: 08:14:54
(UTC+00:00)

MetOp-A - Pass Details

Date: 14 April 2026
Orbit: 520 x 765 km, 98.3° (Epoch: 9 May)

Event Time Altitude Azimuth Distance (km) Brightness Sun altitude
Exits shadow 20:49:31 69° 123° (ESE) 797 3.8 -24.6°
Maximum altitude 20:50:01 77° 71° (ENE) 771 3.9 -24.6°
Drops below altitude 10° 20:55:08 10° 346° (NNW) 2,308 7.5 -24.7°
Sets 20:57:29 0° 345° (NNW) 3,247 8.6 -24.8°
